CORVUS BC4

Satellite information

Favourite Embed

Satellite Type and Status

PAYLOADIN ORBIT

Key statistics

Satellite CORVUS BC4 at a glance.

Uptime

2408

Days in orbit

Revolutions

≈ 15.1

Per day

Orbit

SSO

Sun Synchronous Orbit

Inclination

97.5

Latest

Satellite identification and parameters

Extended collection of information and parameters for CORVUS BC4.

Object identification

Identified? True

Debris? False

Object name: CORVUS BC4

International designator: 2018-099K

Object number (NORAD): 43767

Object ID (CCSDS): 43767

Country: UNITED STATES OF AMERICA (US)

Current information (Y/N): Y

RCS size: SMALL

Orbital parameters

Period: 95.455 minutes

Inclination: 97.4578 deg

SMA: 6918.703 km

Apoapsis: 547.9 km

Periapsis: 533.236 km

RAAN: 235.5806 deg

Eccentricy: 0.0010598

Argument of periapsis: 109.4927 deg

Mean anomaly: 250.7448 deg

Mean motion: 15.08570928 rev/day

Mean motion (dot): 0.00004147 rev/day2

B* drag term: 0.00026904 1/REarth

Two-line elements (TLE)

Creation date: July 6, 2025, 6:05 p.m.

Reference frame: TEME

Reference center: EARTH

Epoch: July 6, 2025, 2:39 p.m. UTC

TLE line 0: 0 CORVUS BC4

TLE line 1: 1 43767U 18099K 25187.61106924 .00004147 00000-0 26904-3 0 9996

TLE line 2: 2 43767 97.4578 235.5806 0010598 109.4927 250.7448 15.08570928360232

Live tracking on map

Real-time ground track for satellite CORVUS BC4.

In-orbit conjunctions

There are no conjunctions computed for CORVUS BC4, at the moment. Check back to stay up to date, as we update our databases every day.

Go to all conjunctions

Associated space launch

Dedicated rideshare launching payloads into sun-synchronous orbit. Payloads include ORS-6, EU:CROPIS, STPSat-5, BlackSky Global-1 to -4, HawkEye Pathfinder 1-3, Iceye, NEXTSat-1, 2 SkySats, Centauri II, and a Flock of Doves.

CORVUS BC4 was lifted into orbit during the mission ‘Falcon 9 Block 5 | Spaceflight SSO-A’, on board a Falcon 9 space rocket.

The launch took place on Dec. 3, 2018, 6:34 p.m. from Space Launch Complex 4E.

For more information about the launch, click the button.

Launch to space Falcon 9 Block 5 | Spaceflight SSO-A
Falcon 9 Block 5 | Spaceflight SSO-A

Agency: N/A

Status: Launch Successful

Launch date: Dec. 3, 2018, 6:34 p.m. UTC

Rocket: Falcon 9

Launch pad: Space Launch Complex 4E

Location: Vandenberg SFB, CA, USA

...

Latest news about this satellite

There are no fresh news available about this satellite. Check back as we update our databases every day.


Newsletter sign-up

Weekly statistics, charts and insights to help you stay on top of the space industry.